GW2898 Weather Reports


Display with metric or nautical units.
time (UTC)temp
F
wind
direction
speed
MPH
gust
MPH
rain 1hr
in
rain 24hr
in
rain mn
in
humidity
%
barometer
mb
20260508163708 84 231 2.0 3.0 0.00 0.00 0.00 27 1015.7
20260508163205 83 81 1.0 4.0 0.00 0.00 0.00 26 1015.5
20260508162700 82 229 0.0 3.0 0.00 0.00 0.00 26 1015.6
20260508162158 81 223 2.0 4.0 0.00 0.00 0.00 26 1015.6
20260508161655 82 200 3.0 4.0 0.00 0.00 0.00 25 1016.0
20260508161152 82 209 1.0 4.0 0.00 0.00 0.00 31 1015.7
20260508160651 81 237 2.0 3.0 0.00 0.00 0.00 25 1015.3
20260508160148 82 203 4.0 6.0 0.00 0.00 0.00 26 1015.7
20260508155645 79 347 1.0 3.0 0.00 0.00 0.00 27 1015.5
20260508155141 81 151 2.0 5.0 0.00 0.00 0.00 26 1015.7
20260508154639 80 170 2.0 3.0 0.00 0.00 0.00 28 1015.5
20260508154136 80 163 2.0 4.0 0.00 0.00 0.00 27 1015.4
20260508153633 79 160 0.0 4.0 0.00 0.00 0.00 29 1015.7
20260508153130 78 191 0.0 5.0 0.00 0.00 0.00 29 1015.4
20260508152626 78 127 0.0 5.0 0.00 0.00 0.00 30 1015.6
20260508152121 80 74 3.0 4.0 0.00 0.00 0.00 29 1015.5
20260508151618 78 157 2.0 3.0 0.00 0.00 0.00 30 1015.5
20260508151115 78 205 2.0 4.0 0.00 0.00 0.00 29 1015.7
20260508150612 77 179 2.0 5.0 0.00 0.00 0.00 30 1015.7
20260508150109 76 126 2.0 5.0 0.00 0.00 0.00 31 1015.7
20260508145605 76 107 0.0 3.0 0.00 0.00 0.00 32 1015.7
20260508145102 78 16 3.0 3.0 0.00 0.00 0.00 29 1015.7
20260508144600 77 164 0.0 2.0 0.00 0.00 0.00 32 1015.8
20260508144057 77 333 0.0 2.0 0.00 0.00 0.00 32 1016.0
20260508143554 78 11 2.0 3.0 0.00 0.00 0.00 31 1015.7
20260508143051 76 202 0.0 1.0 0.00 0.00 0.00 33 1015.8
20260508142547 76 51 0.0 1.0 0.00 0.00 0.00 33 1015.7
20260508142043 75 105 2.0 2.0 0.00 0.00 0.00 34 1015.6
20260508141540 75 84 2.0 3.0 0.00 0.00 0.00 33 1015.5
20260508141038 75 129 0.0 2.0 0.00 0.00 0.00 35 1015.5
20260508140535 74 19 2.0 2.0 0.00 0.00 0.00 36 1015.4
20260508140031 71 6 0.0 2.0 0.00 0.00 0.00 42 1015.4
20260508135527 74 37 0.0 1.0 0.00 0.00 0.00 39 1015.6
20260508135024 70 56 1.0 2.0 0.00 0.00 0.00 42 1015.4
20260508134520 69 36 0.0 2.0 0.00 0.00 0.00 46 1015.2
20260508134017 69 32 0.0 2.0 0.00 0.00 0.00 44 1015.2
20260508133514 69 25 1.0 2.0 0.00 0.00 0.00 45 1014.9
20260508133011 68 63 0.0 1.0 0.00 0.00 0.00 45 1015.1
20260508132509 67 101 1.0 2.0 0.00 0.00 0.00 44 1014.9
20260508132006 65 40 0.0 2.0 0.00 0.00 0.00 48 1015.0
20260508131500 64 32 1.0 2.0 0.00 0.00 0.00 48 1015.0
20260508130957 64 67 1.0 2.0 0.00 0.00 0.00 48 1014.7
20260508130455 62 83 1.0 2.0 0.00 0.00 0.00 51 1014.6
20260508125950 60 82 1.0 3.0 0.00 0.00 0.00 54 1014.7
20260508125447 59 76 1.0 2.0 0.00 0.00 0.00 57 1014.5
20260508124945 57 160 0.0 2.0 0.00 0.00 0.00 59 1014.7
20260508124442 58 82 1.0 2.0 0.00 0.00 0.00 58 1014.3
20260508123939 58 83 1.0 3.0 0.00 0.00 0.00 57 1014.4
20260508123438 58 81 2.0 3.0 0.00 0.00 0.00 57 1014.4
20260508122934 57 114 1.0 2.0 0.00 0.00 0.00 59 1014.4
20260508122431 58 81 1.0 2.0 0.00 0.00 0.00 57 1014.5
20260508121928 58 104 2.0 3.0 0.00 0.00 0.00 57 1014.4
20260508121427 58 147 0.0 2.0 0.00 0.00 0.00 56 1014.0
20260508120924 59 24 1.0 2.0 0.00 0.00 0.00 55 1014.3
20260508120421 58 43 1.0 2.0 0.00 0.00 0.00 55 1014.1
20260508115919 58 37 0.0 2.0 0.00 0.00 0.00 55 1014.1
20260508115418 59 131 0.0 2.0 0.00 0.00 0.00 53 1013.9
20260508114913 59 70 0.0 2.0 0.00 0.00 0.00 52 1014.0
20260508114410 59 92 1.0 3.0 0.00 0.00 0.00 52 1013.9
20260508113906 59 89 0.0 2.0 0.00 0.00 0.00 50 1014.2
20260508113404 60 103 0.0 2.0 0.00 0.00 0.00 50 1013.9
20260508112901 60 91 2.0 3.0 0.00 0.00 0.00 49 1013.9
20260508112358 60 44 0.0 3.0 0.00 0.00 0.00 48 1014.0
20260508111854 59 116 1.0 3.0 0.00 0.00 0.00 50 1014.0
20260508111352 60 117 0.0 2.0 0.00 0.00 0.00 48 1014.0
20260508110849 60 105 1.0 3.0 0.00 0.00 0.00 45 1013.8
20260508110346 61 119 0.0 2.0 0.00 0.00 0.00 46 1014.0
20260508105846 61 54 2.0 4.0 0.00 0.00 0.00 43 1014.0
20260508105343 60 97 1.0 2.0 0.00 0.00 0.00 45 1014.0
20260508104840 60 74 0.0 2.0 0.00 0.00 0.00 44 1014.0
20260508104337 61 50 0.0 2.0 0.00 0.00 0.00 44 1013.9
20260508103835 61 15 0.0 2.0 0.00 0.00 0.00 43 1014.0
20260508103331 61 83 2.0 2.0 0.00 0.00 0.00 42 1013.7
20260508102828 61 58 0.0 2.0 0.00 0.00 0.00 42 1013.9
20260508102327 61 75 1.0 2.0 0.00 0.00 0.00 41 1014.0
20260508101823 61 97 1.0 2.0 0.00 0.00 0.00 40 1013.7
20260508101321 62 91 3.0 3.0 0.00 0.00 0.00 41 1013.6
20260508100818 63 20 0.0 2.0 0.00 0.00 0.00 40 1013.7
20260508100317 62 44 2.0 2.0 0.00 0.00 0.00 39 1013.7
20260508095812 63 15 2.0 2.0 0.00 0.00 0.00 38 1013.9
20260508095310 62 42 0.0 2.0 0.00 0.00 0.00 38 1013.7
20260508094806 63 89 0.0 2.0 0.00 0.00 0.00 39 1013.4
20260508094304 63 38 0.0 2.0 0.00 0.00 0.00 39 1013.7
20260508093801 63 86 1.0 2.0 0.00 0.00 0.00 38 1013.5
20260508093258 64 42 2.0 3.0 0.00 0.00 0.00 40 1013.5
20260508092755 63 142 0.0 2.0 0.00 0.00 0.00 38 1013.6
20260508092253 64 75 1.0 2.0 0.00 0.00 0.00 41 1013.7
20260508091751 63 217 0.0 1.0 0.00 0.00 0.00 42 1013.3
20260508091247 63 84 1.0 2.0 0.00 0.00 0.00 43 1013.7
20260508090745 64 145 0.0 1.0 0.00 0.00 0.00 42 1013.6
20260508090243 64 89 3.0 3.0 0.00 0.00 0.00 42 1013.7
20260508085738 64 150 0.0 2.0 0.00 0.00 0.00 41 1013.4
20260508085236 64 92 1.0 2.0 0.00 0.00 0.00 40 1013.6
20260508084732 64 130 0.0 1.0 0.00 0.00 0.00 41 1013.7
20260508084230 64 29 1.0 2.0 0.00 0.00 0.00 41 1013.6
20260508083727 64 119 1.0 2.0 0.00 0.00 0.00 39 1013.7
20260508083225 65 101 0.0 2.0 0.00 0.00 0.00 38 1013.7
20260508082719 64 70 1.0 2.0 0.00 0.00 0.00 39 1013.6
20260508082217 65 106 1.0 2.0 0.00 0.00 0.00 39 1013.7
20260508081714 65 23 0.0 2.0 0.00 0.00 0.00 38 1013.9
20260508081210 66 85 2.0 3.0 0.00 0.00 0.00 37 1013.8
20260508080708 66 28 0.0 2.0 0.00 0.00 0.00 37 1013.8
20260508080206 66 89 0.0 1.0 0.00 0.00 0.00 36 1013.8
20260508075702 67 48 0.0 2.0 0.00 0.00 0.00 35 1013.8
20260508075159 67 51 1.0 1.0 0.00 0.00 0.00 35 1013.9
20260508074657 68 24 1.0 2.0 0.00 0.00 0.00 34 1013.8
20260508074154 68 2 0.0 2.0 0.00 0.00 0.00 35 1013.8
20260508073651 68 17 1.0 3.0 0.00 0.00 0.00 34 1013.6
20260508073149 67 21 2.0 2.0 0.00 0.00 0.00 34 1013.5
20260508072644 67 99 0.0 2.0 0.00 0.00 0.00 35 1013.7
20260508072141 68 173 0.0 1.0 0.00 0.00 0.00 39 1013.6
20260508071639 66 89 0.0 2.0 0.00 0.00 0.00 37 1013.7
20260508071137 67 103 1.0 2.0 0.00 0.00 0.00 35 1013.6
20260508070634 68 66 1.0 2.0 0.00 0.00 0.00 35 1013.2
20260508070133 68 117 0.0 2.0 0.00 0.00 0.00 33 1013.3
20260508065630 68 76 2.0 3.0 0.00 0.00 0.00 34 1013.4
20260508065127 67 134 1.0 2.0 0.00 0.00 0.00 34 1013.4
20260508064625 68 72 0.0 2.0 0.00 0.00 0.00 36 1013.2
20260508064123 68 127 0.0 2.0 0.00 0.00 0.00 37 1013.5
20260508063620 69 86 1.0 2.0 0.00 0.00 0.00 35 1013.5
20260508063119 68 50 1.0 3.0 0.00 0.00 0.00 35 1013.5
20260508062616 68 62 2.0 2.0 0.00 0.00 0.00 35 1013.4
20260508062112 68 89 0.0 1.0 0.00 0.00 0.00 35 1013.4
20260508061609 68 100 1.0 2.0 0.00 0.00 0.00 35 1013.5
20260508061107 68 34 0.0 2.0 0.00 0.00 0.00 35 1013.3
20260508060603 68 133 0.0 2.0 0.00 0.00 0.00 35 1013.5
20260508060100 69 134 1.0 2.0 0.00 0.00 0.00 35 1013.5
20260508055556 69 105 0.0 1.0 0.00 0.00 0.00 35 1013.4
20260508055053 69 74 0.0 1.0 0.00 0.00 0.00 34 1013.6
20260508054549 69 31 0.0 1.0 0.00 0.00 0.00 34 1013.5
20260508054046 69 51 0.0 2.0 0.00 0.00 0.00 35 1013.5
20260508053543 69 13 0.0 2.0 0.00 0.00 0.00 34 1013.4
20260508053042 69 129 0.0 2.0 0.00 0.00 0.00 33 1013.4
20260508052539 70 124 0.0 0.0 0.00 0.00 0.00 33 1013.3
20260508052035 71 76 0.0 1.0 0.00 0.00 0.00 30 1013.3
20260508051531 71 164 0.0 1.0 0.00 0.00 0.00 31 1013.2
20260508051027 70 38 0.0 1.0 0.00 0.00 0.00 31 1013.3
20260508050524 71 141 0.0 0.0 0.00 0.00 0.00 30 1013.3
20260508050021 71 32 0.0 1.0 0.00 0.00 0.00 30 1013.0
20260508045512 71 142 0.0 1.0 0.00 0.00 0.00 29 1013.2
20260508045009 71 117 0.0 2.0 0.00 0.00 0.00 29 1013.0
20260508044507 72 37 0.0 1.0 0.00 0.00 0.00 28 1013.0
20260508044002 73 180 0.0 0.0 0.00 0.00 0.00 26 1013.1
20260508043459 72 97 1.0 1.0 0.00 0.00 0.00 25 1012.7
20260508042955 72 157 0.0 1.0 0.00 0.00 0.00 27 1012.6
20260508042453 72 50 0.0 1.0 0.00 0.00 0.00 25 1012.7
20260508041950 73 37 0.0 1.0 0.00 0.00 0.00 26 1012.6
20260508041446 73 129 0.0 1.0 0.00 0.00 0.00 26 1012.7
20260508040943 73 37 0.0 1.0 0.00 0.00 0.00 25 1012.7
20260508040441 74 117 0.0 0.0 0.00 0.00 0.00 25 1012.7
20260508035938 74 60 0.0 0.0 0.00 0.00 0.00 23 1012.7
20260508035435 75 104 0.0 0.0 0.00 0.00 0.00 23 1012.4
20260508034932 75 104 0.0 1.0 0.00 0.00 0.00 21 1012.5
20260508034429 76 75 0.0 1.0 0.00 0.00 0.00 21 1012.2
20260508033925 77 129 0.0 0.0 0.00 0.00 0.00 21 1012.4
20260508033424 77 141 0.0 0.0 0.00 0.00 0.00 21 1012.3
20260508032921 77 141 0.0 0.0 0.00 0.00 0.00 21 1012.1
20260508032418 78 47 0.0 1.0 0.00 0.00 0.00 20 1012.0
20260508031915 79 217 0.0 0.0 0.00 0.00 0.00 18 1012.0
20260508031412 79 195 0.0 0.0 0.00 0.00 0.00 18 1011.9
20260508030908 80 195 0.0 0.0 0.00 0.00 0.00 17 1011.7
20260508030405 82 195 0.0 0.0 0.00 0.00 0.00 16 1011.8
20260508025903 83 210 0.0 2.0 0.00 0.00 0.00 16 1011.9
20260508025359 84 224 0.0 1.0 0.00 0.00 0.00 16 1011.8
20260508024856 84 217 0.0 1.0 0.00 0.00 0.00 15 1011.6
20260508024352 85 217 0.0 2.0 0.00 0.00 0.00 15 1011.7
20260508023849 85 258 0.0 1.0 0.00 0.00 0.00 15 1011.7
20260508023346 86 299 0.0 2.0 0.00 0.00 0.00 14 1011.7
20260508022843 87 240 0.0 4.0 0.00 0.00 0.00 14 1011.5
20260508022338 88 309 0.0 3.0 0.00 0.00 0.00 13 1011.4
20260508021836 88 247 2.0 5.0 0.00 0.00 0.00 13 1011.6
20260508021332 88 276 0.0 5.0 0.00 0.00 0.00 13 1011.3
20260508020827 88 259 5.0 9.0 0.00 0.00 0.00 13 1011.5
20260508020325 89 297 1.0 4.0 0.00 0.00 0.00 12 1011.4
20260508015822 89 244 4.0 5.0 0.00 0.00 0.00 12 1011.5
20260508015320 89 354 0.0 5.0 0.00 0.00 0.00 12 1011.2
20260508014816 90 322 2.0 5.0 0.00 0.00 0.00 12 1011.0
20260508014313 91 282 3.0 6.0 0.00 0.00 0.00 12 1011.3
20260508013809 91 241 2.0 5.0 0.00 0.00 0.00 12 1011.3
20260508013305 91 247 4.0 9.0 0.00 0.00 0.00 12 1011.1
20260508012803 91 271 5.0 7.0 0.00 0.00 0.00 11 1011.0
20260508012300 92 240 7.0 9.0 0.00 0.00 0.00 11 1011.2
20260508011758 92 310 6.0 11.0 0.00 0.00 0.00 12 1011.0
20260508011255 91 195 4.0 5.0 0.00 0.00 0.00 11 1010.8
20260508010752 92 219 2.0 9.0 0.00 0.00 0.00 11 1011.1
20260508010250 93 259 3.0 4.0 0.00 0.00 0.00 11 1010.9
20260508005747 93 275 3.0 7.0 0.00 0.00 0.00 11 1011.0
20260508005243 94 237 4.0 5.0 0.00 0.00 0.00 11 1010.7
20260508004739 94 283 1.0 4.0 0.00 0.00 0.00 11 1010.8
20260508004235 94 251 2.0 4.0 0.00 0.00 0.00 10 1010.8
20260508003732 94 142 2.0 5.0 0.00 0.00 0.00 12 1011.0
20260508003230 94 226 2.0 3.0 0.00 0.00 0.00 11 1010.9
20260508002726 95 228 3.0 5.0 0.00 0.00 0.00 11 1010.9
20260508002223 93 232 6.0 8.0 0.00 0.00 0.00 11 1011.1
20260508001719 95 153 2.0 6.0 0.00 0.00 0.00 11 1011.0
20260508001214 95 252 3.0 6.0 0.00 0.00 0.00 10 1011.0
20260508000711 97 249 1.0 2.0 0.00 0.00 0.00 10 1011.0
20260508000209 94 225 2.0 5.0 0.00 0.00 0.00 11 1010.8
20260507235705 95 266 3.0 5.0 0.00 0.00 0.00 10 1011.1
20260507235202 94 255 1.0 6.0 0.00 0.00 0.00 9 1011.0
20260507234659 94 238 3.0 8.0 0.00 0.00 0.00 11 1011.1
20260507234155 95 150 2.0 3.0 0.00 0.00 0.00 10 1011.1
20260507233652 95 245 4.0 8.0 0.00 0.00 0.00 10 1011.1
20260507233151 94 230 3.0 7.0 0.00 0.00 0.00 10 1011.2
20260507232647 95 277 1.0 10.0 0.00 0.00 0.00 12 1011.2
20260507232144 95 331 4.0 6.0 0.00 0.00 0.00 10 1011.4
20260507231641 94 15 3.0 6.0 0.00 0.00 0.00 10 1011.2
20260507231138 94 81 2.0 4.0 0.00 0.00 0.00 11 1011.2
20260507230634 95 100 3.0 5.0 0.00 0.00 0.00 13 1011.2
20260507230132 95 68 0.0 5.0 0.00 0.00 0.00 10 1011.3
20260507225626 96 100 2.0 6.0 0.00 0.00 0.00 9 1011.3
20260507225123 95 230 2.0 5.0 0.00 0.00 0.00 10 1011.3
20260507224619 95 223 2.0 5.0 0.00 0.00 0.00 12 1011.6
20260507224116 94 183 2.0 7.0 0.00 0.00 0.00 10 1011.4
20260507223612 94 189 3.0 4.0 0.00 0.00 0.00 11 1011.7
20260507223109 95 77 4.0 9.0 0.00 0.00 0.00 11 1011.6
20260507222606 94 213 4.0 7.0 0.00 0.00 0.00 10 1011.9
20260507222102 95 56 2.0 4.0 0.00 0.00 0.00 10 1011.8
20260507221558 95 269 0.0 4.0 0.00 0.00 0.00 10 1011.7
20260507221055 94 225 2.0 4.0 0.00 0.00 0.00 11 1011.7
20260507220552 95 6 0.0 3.0 0.00 0.00 0.00 12 1011.7
20260507220050 93 164 3.0 5.0 0.00 0.00 0.00 11 1012.1
20260507215546 93 211 4.0 7.0 0.00 0.00 0.00 15 1012.1
20260507215044 92 26 1.0 8.0 0.00 0.00 0.00 9 1012.2
20260507214541 93 228 7.0 14.0 0.00 0.00 0.00 12 1012.2
20260507214037 93 289 4.0 5.0 0.00 0.00 0.00 12 1012.2
20260507213533 94 153 5.0 6.0 0.00 0.00 0.00 11 1012.4
20260507213030 93 174 2.0 5.0 0.00 0.00 0.00 12 1012.4
20260507212526 92 227 2.0 8.0 0.00 0.00 0.00 16 1012.5
20260507212023 92 205 5.0 10.0 0.00 0.00 0.00 13 1012.6
20260507211520 93 230 6.0 8.0 0.00 0.00 0.00 12 1013.0
20260507211016 93 220 2.0 5.0 0.00 0.00 0.00 13 1012.8
20260507210513 92 170 4.0 10.0 0.00 0.00 0.00 12 1013.1
20260507210010 92 317 4.0 7.0 0.00 0.00 0.00 12 1012.7
20260507205507 92 320 4.0 8.0 0.00 0.00 0.00 11 1013.3
20260507205003 91 338 3.0 5.0 0.00 0.00 0.00 11 1013.2
20260507204459 92 258 5.0 6.0 0.00 0.00 0.00 11 1013.4
20260507203957 93 239 0.0 5.0 0.00 0.00 0.00 12 1013.3
20260507203455 94 1 3.0 5.0 0.00 0.00 0.00 12 1013.4
20260507202951 93 226 2.0 4.0 0.00 0.00 0.00 11 1013.6
20260507202448 94 275 2.0 3.0 0.00 0.00 0.00 11 1013.5
20260507201944 92 340 3.0 5.0 0.00 0.00 0.00 12 1013.6
20260507201439 93 343 1.0 5.0 0.00 0.00 0.00 14 1013.5
20260507200936 91 333 5.0 6.0 0.00 0.00 0.00 13 1013.6
20260507200431 91 68 2.0 3.0 0.00 0.00 0.00 11 1013.8
20260507195927 90 202 2.0 4.0 0.00 0.00 0.00 16 1014.1
20260507195425 90 330 2.0 6.0 0.00 0.00 0.00 11 1014.1
20260507194922 90 220 4.0 5.0 0.00 0.00 0.00 13 1014.1
20260507194419 90 228 3.0 5.0 0.00 0.00 0.00 12 1014.2
20260507193915 91 118 1.0 3.0 0.00 0.00 0.00 14 1014.2
20260507193412 91 159 2.0 4.0 0.00 0.00 0.00 18 1014.2
20260507192909 91 13 1.0 4.0 0.00 0.00 0.00 13 1014.3
20260507192405 91 262 3.0 4.0 0.00 0.00 0.00 12 1014.3
20260507191902 91 338 3.0 5.0 0.00 0.00 0.00 11 1014.6
20260507191358 90 344 1.0 3.0 0.00 0.00 0.00 11 1014.5
20260507190854 90 156 0.0 8.0 0.00 0.00 0.00 14 1014.5
20260507190353 90 11 2.0 4.0 0.00 0.00 0.00 13 1014.6
20260507185851 89 340 3.0 8.0 0.00 0.00 0.00 13 1014.6
20260507185348 90 74 2.0 4.0 0.00 0.00 0.00 12 1014.7
20260507184845 90 352 2.0 5.0 0.00 0.00 0.00 12 1014.9
20260507184343 89 101 4.0 6.0 0.00 0.00 0.00 13 1014.9
20260507183839 90 192 1.0 5.0 0.00 0.00 0.00 17 1014.8
20260507183336 89 144 3.0 6.0 0.00 0.00 0.00 20 1015.0
20260507182834 88 225 3.0 6.0 0.00 0.00 0.00 18 1015.1
20260507182329 87 200 4.0 10.0 0.00 0.00 0.00 16 1015.0
20260507181826 87 226 3.0 3.0 0.00 0.00 0.00 17 1015.1
20260507181322 87 358 1.0 7.0 0.00 0.00 0.00 16 1015.3
20260507180819 88 47 2.0 5.0 0.00 0.00 0.00 15 1015.2
20260507180316 88 75 0.0 3.0 0.00 0.00 0.00 15 1015.4
20260507175811 87 228 3.0 5.0 0.00 0.00 0.00 18 1015.4
20260507175309 87 187 2.0 5.0 0.00 0.00 0.00 20 1015.5
20260507174806 86 37 0.0 6.0 0.00 0.00 0.00 17 1015.7
20260507174304 85 223 4.0 5.0 0.00 0.00 0.00 18 1015.5
20260507173801 87 214 0.0 4.0 0.00 0.00 0.00 19 1015.7
20260507173258 86 132 2.0 6.0 0.00 0.00 0.00 19 1015.7
20260507172754 86 269 0.0 4.0 0.00 0.00 0.00 18 1016.0
20260507172251 86 97 2.0 5.0 0.00 0.00 0.00 21 1015.8
20260507171747 85 124 0.0 3.0 0.00 0.00 0.00 19 1016.0
20260507171244 85 77 0.0 4.0 0.00 0.00 0.00 18 1016.0
20260507170741 84 76 3.0 4.0 0.00 0.00 0.00 20 1015.6
20260507170237 84 65 2.0 6.0 0.00 0.00 0.00 20 1015.7
20260507165733 83 279 2.0 4.0 0.00 0.00 0.00 20 1016.1
20260507165229 84 149 0.0 4.0 0.00 0.00 0.00 22 1016.3
20260507164726 83 63 0.0 2.0 0.00 0.00 0.00 23 1016.0
20260507164223 81 313 2.0 4.0 0.00 0.00 0.00 22 1016.0